OneWeb SL0170

operational
NORAD ID: 48067 Int'l Des: 2021-025 Owner: ONEWEBN Country: UK Constellation: oneweb
LEOCIRCULARPOLARONEWEB_TYPE

Über OneWeb SL0170

Beschreibung wird geladen...

Live-Position

3D-Globus wird geladen...

Nächste Überflüge

Höhenverlauf

Altitude vs Time

uPlot chart will show altitude changes over time

Zweizeiliger Elementsatz

1 48067U 21025AB 25306.45257378 .00000173 00000-0 43937-3 0 9992
2 48067 87.9030 5.2887 0002117 111.1566 248.9790 13.13469585223782
Epoch: 2. Nov. 2025 • Age: 6 hours

Aktueller Status

Höhe 1222.0 km
Geschwindigkeit 7.25 km/s
Subsatellitenpunkt 82.91°N, 88.54°E
Startdatum 25. März 2021
Alter 4.6 years
Typ internet

Technische Details

Klassifizierung Payload
Masse 148.00 kg
Trockenmasse 140.00 kg
Gesamtmasse 148.00 kg
Länge 1.30 m
Durchmesser 1.00 m
Spannweite 5.00 m
Form Trapezoid+2 pan
Hersteller ONEWUS
Bus-Typ ARROW
Phasenstatus In Orbit
Besitzer/Staat ONEWEBN/UK

Große Konstellationen

Loading constellations...